When you browse on this site, cookies collect data to enhance your experience and personalize the content and advertising you see.
Visit our Privacy Policy to learn more. By continuing to use the site, you agree to this use of cookies and data.
  • In Österreich
  • Länderverzeichnis
  • Für 7 Tage
  • Wassertemperatur
  • Wetterkarte
  • News
  • Widgets
  • user-avatar
    Anmelden

    Stündliche Wetter Cumaná

    Heute, 18 Januar, Samstag

    Zeit Temperatur Niederschläge Wind Luftdruck Luftfeuchtigkeit
    00:00 +25°C° 0.1 mm 4 m/S 754 mmHg 97%
    01:00 +23°C° 0.1 mm 4 m/S 753 mmHg 96%
    02:00 +23°C° 0.1 mm 4 m/S 753 mmHg 94%
    03:00 +23°C° 0.1 mm 4 m/S 753 mmHg 94%
    04:00 +23°C° 0.1 mm 4 m/S 753 mmHg 94%
    05:00 +23°C° 0.1 mm 4 m/S 752 mmHg 93%
    06:00 +25°C° 0 mm 4 m/S 753 mmHg 92%
    07:00 +25°C° 0 mm 3 m/S 753 mmHg 91%
    08:00 +26°C° 0 mm 3 m/S 753 mmHg 90%
    09:00 +28°C° 0 mm 4 m/S 754 mmHg 82%
    10:00 +30°C° 0 mm 4 m/S 754 mmHg 73%
    11:00 +33°C° 0 mm 5 m/S 755 mmHg 65%
    12:00 +32°C° 0.2 mm 5 m/S 754 mmHg 70%
    13:00 +30°C° 0.2 mm 6 m/S 753 mmHg 76%
    14:00 +30°C° 0.2 mm 7 m/S 752 mmHg 82%
    15:00 +29°C° 0.2 mm 7 m/S 752 mmHg 85%
    16:00 +29°C° 0.2 mm 6 m/S 752 mmHg 88%
    17:00 +28°C° 0.2 mm 6 m/S 751 mmHg 92%
    18:00 +27°C° 0 mm 6 m/S 752 mmHg 94%
    19:00 +27°C° 0 mm 6 m/S 752 mmHg 96%
    20:00 +26°C° 0 mm 5 m/S 752 mmHg 99%
    21:00 +26°C° 0 mm 5 m/S 753 mmHg 98%
    22:00 +25°C° 0 mm 5 m/S 753 mmHg 97%
    23:00 +25°C° 0 mm 5 m/S 753 mmHg 96%

    Morgen, 19 Januar, Sonntag

    Zeit Temperatur Niederschläge Wind Luftdruck Luftfeuchtigkeit
    00:00 +25°C° 0 mm 5 m/S 753 mmHg 95%
    01:00 +23°C° 0 mm 5 m/S 752 mmHg 95%
    02:00 +23°C° 0 mm 5 m/S 752 mmHg 94%
    03:00 +23°C° 0 mm 5 m/S 752 mmHg 93%
    04:00 +22°C° 0 mm 4 m/S 752 mmHg 93%
    05:00 +22°C° 0 mm 4 m/S 752 mmHg 92%
    06:00 +23°C° 0 mm 4 m/S 752 mmHg 90%
    07:00 +25°C° 0 mm 4 m/S 753 mmHg 88%
    08:00 +26°C° 0 mm 4 m/S 753 mmHg 86%
    09:00 +28°C° 0 mm 5 m/S 753 mmHg 78%
    10:00 +30°C° 0 mm 6 m/S 754 mmHg 70%
    11:00 +33°C° 0 mm 6 m/S 754 mmHg 62%
    12:00 +33°C° 0.1 mm 6 m/S 753 mmHg 66%
    13:00 +32°C° 0.1 mm 7 m/S 752 mmHg 70%
    14:00 +32°C° 0.1 mm 7 m/S 752 mmHg 74%
    15:00 +30°C° 0.1 mm 7 m/S 751 mmHg 80%
    16:00 +29°C° 0.1 mm 7 m/S 751 mmHg 86%
    17:00 +28°C° 0.1 mm 7 m/S 751 mmHg 91%
    18:00 +27°C° 0 mm 7 m/S 751 mmHg 93%
    19:00 +26°C° 0 mm 7 m/S 751 mmHg 95%
    20:00 +24°C° 0 mm 6 m/S 752 mmHg 97%
    21:00 +24°C° 0 mm 6 m/S 752 mmHg 96%
    22:00 +25°C° 0 mm 5 m/S 752 mmHg 95%
    23:00 +23°C° 0 mm 5 m/S 752 mmHg 94%

    übermorgen, 20 Januar, Montag

    Zeit Temperatur Niederschläge Wind Luftdruck Luftfeuchtigkeit
    00:00 +23°C° 0 mm 5 m/S 752 mmHg 93%
    01:00 +23°C° 0 mm 4 m/S 752 mmHg 93%
    02:00 +23°C° 0 mm 4 m/S 751 mmHg 92%
    03:00 +24°C° 0 mm 3 m/S 751 mmHg 92%
    04:00 +24°C° 0 mm 3 m/S 751 mmHg 92%
    05:00 +24°C° 0 mm 3 m/S 751 mmHg 93%
    06:00 +25°C° 0 mm 2 m/S 751 mmHg 91%
    07:00 +26°C° 0 mm 2 m/S 752 mmHg 89%
    08:00 +27°C° 0 mm 2 m/S 752 mmHg 88%
    09:00 +29°C° 0 mm 2 m/S 752 mmHg 79%
    10:00 +31°C° 0 mm 2 m/S 753 mmHg 70%
    11:00 +34°C° 0 mm 2 m/S 753 mmHg 61%
    12:00 +32°C° 0.1 mm 2 m/S 752 mmHg 67%
    13:00 +31°C° 0.1 mm 3 m/S 751 mmHg 72%
    14:00 +31°C° 0.1 mm 3 m/S 751 mmHg 78%
    15:00 +30°C° 0.4 mm 3 m/S 750 mmHg 81%
    16:00 +29°C° 0.4 mm 4 m/S 750 mmHg 85%
    17:00 +29°C° 0.4 mm 4 m/S 750 mmHg 89%
    18:00 +28°C° 0 mm 5 m/S 750 mmHg 91%
    19:00 +27°C° 0 mm 5 m/S 750 mmHg 94%
    20:00 +26°C° 0 mm 5 m/S 751 mmHg 96%
    21:00 +25°C° 0 mm 5 m/S 751 mmHg 95%
    22:00 +25°C° 0 mm 5 m/S 752 mmHg 93%
    23:00 +25°C° 0 mm 5 m/S 752 mmHg 91%

    21 Januar, Dienstag

    Zeit Temperatur Niederschläge Wind Luftdruck Luftfeuchtigkeit
    00:00 +25°C° 0 mm 4 m/S 752 mmHg 90%
    01:00 +25°C° 0 mm 3 m/S 751 mmHg 90%
    02:00 +25°C° 0 mm 3 m/S 751 mmHg 89%
    03:00 +24°C° 0 mm 3 m/S 751 mmHg 88%
    04:00 +24°C° 0 mm 2 m/S 751 mmHg 87%
    05:00 +24°C° 0 mm 2 m/S 750 mmHg 87%
    06:00 +25°C° 0 mm 2 m/S 751 mmHg 84%
    07:00 +26°C° 0 mm 2 m/S 751 mmHg 81%
    08:00 +26°C° 0 mm 3 m/S 752 mmHg 79%
    09:00 +29°C° 0 mm 2 m/S 752 mmHg 71%
    10:00 +31°C° 0 mm 2 m/S 752 mmHg 64%
    11:00 +34°C° 0 mm 2 m/S 752 mmHg 56%
    12:00 +32°C° 0 mm 2 m/S 751 mmHg 60%
    13:00 +33°C° 0 mm 3 m/S 750 mmHg 64%
    14:00 +33°C° 0 mm 3 m/S 749 mmHg 67%
    15:00 +31°C° 0.1 mm 3 m/S 749 mmHg 74%
    16:00 +30°C° 0.1 mm 3 m/S 749 mmHg 81%
    17:00 +29°C° 0.1 mm 3 m/S 748 mmHg 88%
    18:00 +28°C° 0 mm 3 m/S 749 mmHg 90%
    19:00 +27°C° 0 mm 4 m/S 749 mmHg 92%
    20:00 +26°C° 0 mm 4 m/S 749 mmHg 94%
    21:00 +26°C° 0 mm 4 m/S 750 mmHg 93%
    22:00 +25°C° 0 mm 4 m/S 750 mmHg 92%
    23:00 +25°C° 0 mm 4 m/S 750 mmHg 91%

    22 Januar, Mittwoch

    Zeit Temperatur Niederschläge Wind Luftdruck Luftfeuchtigkeit
    00:00 +25°C° 0 mm 4 m/S 750 mmHg 90%
    01:00 +25°C° 0 mm 3 m/S 750 mmHg 90%
    02:00 +25°C° 0 mm 3 m/S 750 mmHg 89%
    03:00 +25°C° 0 mm 3 m/S 750 mmHg 88%
    04:00 +24°C° 0 mm 3 m/S 750 mmHg 87%
    05:00 +24°C° 0 mm 3 m/S 750 mmHg 86%
    06:00 +25°C° 0 mm 2 m/S 750 mmHg 83%
    07:00 +26°C° 0 mm 2 m/S 751 mmHg 80%
    08:00 +27°C° 0 mm 2 m/S 751 mmHg 77%
    09:00 +29°C° 0 mm 2 m/S 751 mmHg 72%
    10:00 +30°C° 0 mm 2 m/S 751 mmHg 66%
    11:00 +32°C° 0 mm 2 m/S 752 mmHg 60%
    12:00 +32°C° 0.1 mm 2 m/S 751 mmHg 65%
    13:00 +31°C° 0.1 mm 2 m/S 750 mmHg 70%
    14:00 +31°C° 0.1 mm 3 m/S 750 mmHg 74%
    15:00 +30°C° 0.2 mm 2 m/S 749 mmHg 78%
    16:00 +30°C° 0.2 mm 2 m/S 749 mmHg 82%
    17:00 +29°C° 0.2 mm 2 m/S 749 mmHg 85%
    18:00 +28°C° 0 mm 3 m/S 749 mmHg 89%
    19:00 +27°C° 0 mm 3 m/S 749 mmHg 93%
    20:00 +25°C° 0 mm 3 m/S 750 mmHg 96%
    21:00 +25°C° 0 mm 3 m/S 750 mmHg 94%
    22:00 +25°C° 0 mm 3 m/S 750 mmHg 92%
    23:00 +25°C° 0 mm 3 m/S 751 mmHg 91%

    23 Januar, Donnerstag

    Zeit Temperatur Niederschläge Wind Luftdruck Luftfeuchtigkeit
    00:00 +24°C° 0 mm 3 m/S 750 mmHg 89%
    01:00 +24°C° 0 mm 3 m/S 750 mmHg 88%
    02:00 +22°C° 0 mm 4 m/S 750 mmHg 87%
    03:00 +22°C° 0 mm 3 m/S 750 mmHg 85%
    04:00 +22°C° 0 mm 3 m/S 750 mmHg 82%
    05:00 +22°C° 0 mm 3 m/S 750 mmHg 80%
    06:00 +24°C° 0 mm 3 m/S 750 mmHg 78%
    07:00 +25°C° 0 mm 3 m/S 751 mmHg 75%
    08:00 +26°C° 0 mm 3 m/S 752 mmHg 73%
    09:00 +28°C° 0 mm 3 m/S 752 mmHg 66%
    10:00 +30°C° 0 mm 3 m/S 752 mmHg 59%
    11:00 +32°C° 0 mm 2 m/S 752 mmHg 52%
    12:00 +33°C° 0 mm 3 m/S 751 mmHg 52%
    13:00 +33°C° 0 mm 3 m/S 751 mmHg 52%
    14:00 +33°C° 0 mm 3 m/S 750 mmHg 52%
    15:00 +31°C° 0 mm 3 m/S 750 mmHg 58%
    16:00 +30°C° 0 mm 3 m/S 749 mmHg 64%
    17:00 +29°C° 0 mm 3 m/S 749 mmHg 70%
    18:00 +28°C° 0 mm 3 m/S 749 mmHg 79%
    19:00 +26°C° 0 mm 3 m/S 750 mmHg 87%
    20:00 +24°C° 0 mm 3 m/S 750 mmHg 96%
    21:00 +24°C° 0 mm 3 m/S 751 mmHg 95%
    22:00 +24°C° 0 mm 3 m/S 751 mmHg 94%
    23:00 +24°C° 0 mm 3 m/S 751 mmHg 92%
    Mehr zeigen